sat.trackr.live / text

‹ back to catalog

2026-052G

NORAD 68204 · 2026-052G

PAYLOAD ACTIVE UNKNOWN

§ Identity

Operator
Country
PRC
Launch date
2026-03-16
Launch site
JSC
Launch vehicle
Mass (kg)
RCS (m²)

External: N2YO · Heavens-Above · Gunter

§ Orbital elements

Epoch: 2026-05-25T03:34:06.967200Z

Period
95.28 min
Inclination
97.5334°
Eccentricity
0.0010912
Mean motion
15.11366323 rev/d
Perigee alt
524.5 km
Apogee alt
539.6 km
Semi-major
6,910.2 km
B*
2.3754e-4
RAAN
220.3629°
Arg perigee
36.4771°
Mean anomaly
323.7201°
Rev number
1,057

§ Raw data

2026-052G1 68204U 26052G   26145.14869175  .00003948  00000+0  23754-3 0  99912 68204  97.5334 220.3629 0010912  36.4771 323.7201 15.11366323 10570

JSON: /api/v1/satellites/68204 · /tle

For live sub-satellite position, see the globe view (requires WebGL).

§ Visibility from observer

Set your observer location to see the next 7 days of passes ≥ 10°. The values pass through the URL so the page stays shareable.

No JS? Fill the form by hand. The geolocation button needs JavaScript.